Weather History for Burley, ID

Change the Weather History Date:

Thursday, August 1, 2013

  Actual Average Record
Temperature  
Mean Temperature 71 °F 71 °F  
Max Temperature 87 °F 87 °F 98 °F (1992)
Min Temperature 54 °F 54 °F 40 °F (1975)
Degree Days  
Heating Degree Days 0 0  
Month to date heating degree days 0 0  
Since 1 June heating degree days 101 156  
Since 1 July heating degree days 0 22  
Cooling Degree Days 6 6  
Month to date cooling degree days 6 6  
Year to date cooling degree days 380 219  
Since 1 June cooling degree days 370 213  
Growing Degree Days 20 (Base 50)    
Moisture  
Dew Point 46 °F    
Average Humidity 54    
Maximum Humidity 86    
Minimum Humidity 21    
Precipitation  
Precipitation 0.00 in 0.01 in 0.08 in (2011)
Month to date precipitation 0.00 0.01  
Year to date precipitation 2.33 6.37  
Sea Level Pressure  
Sea Level Pressure 29.79 in    
Wind  
Wind Speed 8 mph (West)    
Max Wind Speed 22 mph    
Max Gust Speed 26 mph    
Visibility 9 miles    
Events      
T = Trace of Precipitation, MM = Missing Value Source: NWS Daily Summary

Daily Weather History Graph

Daily Weather History Graph

Search for Another Location

Airport:

Trip Planner

Search our weather history database for the weather conditions in past years. The results will help you decide how hot, cold, wet, or windy it might be!

Date:

Astronomy

Aug. 01, 2013 Rise Set
Actual Time 6:27 AM MDT 8:54 PM MDT
Civil Twilight 5:55 AM MDT 9:26 PM MDT
Nautical Twilight 5:15 AM MDT 10:05 PM MDT
Astronomical Twilight 4:31 AM MDT 10:50 PM MDT
Moon 2:05 AM MDT (8/1) 5:07 PM MDT (8/1)
Length of Visible Light 15h 30m
Length of Day
14h 27m
Waning Crescent, 23% of the Moon is Illuminated
Aug 1
Waning Crescent
Aug 6
New
Aug 14
First Quarter
Aug 20
Full
Aug 28
Last Quarter

Hourly Weather History & Observations

Time (MDT) Temp. Dew Point Humidity Pressure Visibility Wind Dir Wind Speed Gust Speed Precip Events Conditions
12:53 AM 69.1 °F 48.9 °F 49% 29.81 in 10.0 mi East 9.2 mph - N/A   Clear
1:53 AM 69.1 °F 50.0 °F 51% 29.79 in 10.0 mi ESE 9.2 mph - N/A   Clear
2:53 AM 63.0 °F 51.1 °F 65% 29.78 in 10.0 mi NE 4.6 mph - N/A   Clear
3:53 AM 61.0 °F 53.1 °F 75% 29.79 in 10.0 mi Calm Calm - N/A   Clear
4:53 AM 57.9 °F 52.0 °F 81% 29.77 in 10.0 mi West 3.5 mph - N/A   Clear
5:53 AM 55.0 °F 51.1 °F 86% 29.78 in 10.0 mi Calm Calm - N/A   Clear
6:53 AM 55.9 °F 52.0 °F 87% 29.81 in 10.0 mi WNW 3.5 mph - N/A   Clear
7:53 AM 60.1 °F 53.1 °F 78% 29.82 in 10.0 mi Calm Calm - N/A   Clear
8:53 AM 63.0 °F 54.0 °F 72% 29.83 in 10.0 mi ESE 5.8 mph - N/A   Clear
9:53 AM 71.1 °F 52.0 °F 51% 29.81 in 10.0 mi West 11.5 mph - N/A   Clear
10:53 AM 75.0 °F 50.0 °F 41% 29.81 in 10.0 mi West 9.2 mph - N/A   Clear
11:53 AM 79.0 °F 48.0 °F 34% 29.80 in 10.0 mi WNW 6.9 mph - N/A   Clear
12:53 PM 82.0 °F 45.0 °F 27% 29.77 in 10.0 mi Variable 6.9 mph - N/A   Clear
1:53 PM 86.0 °F 42.1 °F 21% 29.75 in 10.0 mi WNW 9.2 mph - N/A   Clear
2:53 PM 86.0 °F 44.1 °F 23% 29.74 in 10.0 mi West 11.5 mph 21.9 mph N/A   Clear
3:53 PM 86.0 °F 44.1 °F 23% 29.73 in 10.0 mi WNW 10.4 mph 18.4 mph N/A   Clear
4:53 PM 84.9 °F 42.1 °F 22% 29.72 in 10.0 mi WNW 11.5 mph 25.3 mph N/A   Clear
5:53 PM 84.9 °F 43.0 °F 23% 29.71 in 10.0 mi WNW 9.2 mph 20.7 mph N/A   Clear
6:53 PM 82.9 °F 44.1 °F 25% 29.71 in 10.0 mi WNW 9.2 mph - N/A   Clear
7:53 PM 79.0 °F 44.1 °F 29% 29.72 in 10.0 mi West 5.8 mph - N/A   Clear
8:53 PM 75.0 °F 39.0 °F 27% 29.74 in 10.0 mi West 8.1 mph - N/A   Clear
9:53 PM 69.1 °F 34.0 °F 27% 29.76 in 10.0 mi WSW 8.1 mph - N/A   Clear
10:33 PM 71.6 °F 33.8 °F 25% 29.92 in 8.0 mi West 15.0 mph 23.0 mph N/A   Mostly Cloudy
10:49 PM 69.8 °F 41.0 °F 35% 29.93 in 5.0 mi West 13.8 mph 23.0 mph N/A   Haze
10:53 PM 68.0 °F 42.1 °F 39% 29.80 in 5.0 mi WSW 15.0 mph 23.0 mph N/A   Haze
11:21 PM 66.2 °F 42.8 °F 43% 29.95 in 6.0 mi WSW 18.4 mph 26.5 mph N/A   Haze
11:53 PM 64.9 °F 42.1 °F 43% 29.83 in 10.0 mi WSW 12.7 mph 19.6 mph N/A   Scattered Clouds